Theta_e
296 296 297 298 298 298 298 298 298 298 298 298 298 297 297 296 296 295 295 294 294 294 294 293 293 293 293 293 293 293 292 292 292 291 291 291 291 291 291 291 292 292
294 294 295 296 296 297 297 297 297 297 297 297 297 297 297 296 296 296 295 294 294 293 293 293 293 293 293 293 292 292 292 291 291 291 291 290 290 290 290 291 291 291
293 293 293 294 294 295 295 295 296 296 296 296 296 296 296 296 296 296 295 294 294 293 293 293 293 293 293 293 292 292 291 291 291 291 290 290 290 290 290 290 290 291
292 292 292 293 293 293 294 294 294 295 295 295 295 295 295 295 295 295 295 294 294 293 293 293 293 293 293 292 292 292 291 291 291 290 290 290 289 289 289 289 289 290
292 292 292 292 292 292 292 293 293 294 294 294 294 294 294 294 294 294 294 294 294 293 293 293 293 292 292 292 292 291 291 291 290 290 290 289 289 289 289 289 289 289
292 292 292 292 292 292 292 292 292 293 293 293 294 294 294 294 294 294 294 294 294 293 293 293 292 292 292 291 291 291 291 291 291 290 290 289 289 289 289 288 288 289
290 291 291 292 292 291 291 291 292 292 292 292 292 293 293 293 293 293 293 293 293 293 293 293 292 292 292 291 291 291 290 290 290 290 290 289 289 289 288 288 288 288
289 289 289 290 291 291 291 291 291 291 291 291 291 292 292 292 292 293 293 293 293 293 293 293 292 292 292 291 291 290 290 290 290 290 290 289 289 289 288 288 288 288
289 289 289 289 289 290 290 291 291 291 291 291 291 291 291 291 292 292 292 292 292 292 292 292 292 292 291 291 291 290 290 290 290 290 289 289 289 289 288 288 288 287
289 288 288 288 288 289 289 290 290 290 290 290 290 290 291 291 291 291 291 291 291 292 292 292 292 292 291 291 291 291 290 290 290 290 289 289 289 289 288 288 288 287
288 288 288 288 288 288 288 288 289 289 290 290 290 290 290 290 290 290 290 290 291 291 291 291 291 291 291 291 291 291 291 290 290 289 289 289 289 288 288 288 288 287
287 287 287 287 287 287 287 287 287 288 288 289 289 289 289 289 289 290 290 290 290 290 290 291 291 291 291 291 291 291 290 290 289 289 289 289 288 288 288 288 288 288
286 285 285 285 286 286 286 286 287 287 287 287 288 289 289 289 289 289 289 289 289 289 290 290 290 290 290 290 290 290 290 289 289 289 288 288 288 288 288 288 288 288
287 286 285 285 285 285 285 285 285 285 286 286 287 288 289 289 289 289 289 289 289 289 289 289 289 290 290 289 289 289 289 289 289 288 288 288 288 287 287 287 287 287
288 287 286 285 285 285 285 285 284 284 285 285 286 286 287 288 288 288 288 288 288 288 288 288 289 289 289 289 289 289 288 288 288 288 288 287 287 287 287 287 286 286
287 287 286 286 286 286 285 284 284 284 284 284 285 285 286 286 287 288 288 288 288 288 288 288 288 288 288 288 288 288 288 288 288 288 287 287 287 287 287 286 286 286
286 286 285 286 286 286 286 285 284 283 283 283 284 284 284 285 285 286 287 288 288 288 288 288 288 288 288 288 288 288 288 288 288 288 287 287 287 286 286 286 286 286
284 284 284 284 286 286 286 285 283 283 282 283 283 283 283 284 284 285 286 287 287 288 288 288 288 288 288 288 288 288 288 288 288 287 287 287 287 286 286 286 286 286
283 283 282 282 284 286 285 284 283 283 283 282 282 282 282 283 283 284 284 285 286 287 287 287 287 287 288 288 287 287 287 288 288 288 287 287 287 287 286 286 286 285
282 282 280 280 282 284 284 283 283 283 282 282 282 282 282 283 283 283 283 284 285 286 286 287 287 287 287 287 287 287 287 287 288 288 287 287 287 287 286 286 286 285
281 280 279 279 281 283 283 282 281 281 280 280 281 282 283 283 284 283 283 283 283 284 285 286 286 287 287 286 287 287 287 287 288 288 287 287 287 287 286 286 286 285
280 279 278 278 279 281 281 280 279 279 278 278 279 280 282 283 284 283 283 283 283 283 284 285 286 287 287 286 286 286 287 287 288 288 287 287 287 287 286 286 286 285
279 278 277 277 278 280 280 278 277 277 276 277 278 279 281 282 282 282 282 282 282 283 283 284 285 286 286 286 286 286 287 287 287 287 288 287 287 287 286 286 285 285
278 277 276 276 277 278 278 276 275 275 274 275 277 278 280 281 282 282 281 281 282 282 283 283 284 285 286 285 285 285 286 286 287 287 287 288 287 287 287 286 285 285
277 276 275 276 276 276 275 274 274 273 274 274 276 277 278 279 281 281 281 281 281 282 282 282 283 284 285 285 285 285 285 286 286 287 287 288 288 287 287 286 285 284
275 274 274 274 274 274 273 272 272 272 273 274 274 275 276 277 278 280 280 281 280 281 281 282 282 283 283 285 284 284 285 285 286 286 287 287 288 287 286 285 284 284
Wind_Speed
16 16 14 13 13 13 13 13 14 15 17 18 21 24 28 32 33 35 38 40 42 43 44 45 45 46 48 48 49 49 49 51 52 52 52 52 53 52 51 49 46 43
17 17 16 16 16 16 16 17 18 19 20 21 22 25 27 30 32 34 36 38 40 43 44 45 45 45 46 46 46 47 48 49 50 51 51 52 52 53 53 51 49 46
20 18 17 18 18 20 21 22 23 23 23 24 25 27 28 30 31 32 33 35 38 40 42 44 45 46 46 46 45 46 46 47 48 49 50 50 51 52 53 51 50 49
27 24 22 20 19 20 22 23 24 25 25 26 27 28 29 30 30 31 32 33 35 38 40 42 44 45 46 46 45 45 45 45 46 47 46 48 49 50 51 50 49 49
32 30 27 24 21 21 20 21 23 25 26 27 28 29 29 30 30 31 31 32 34 36 38 40 42 43 44 45 45 45 45 46 46 45 45 46 47 48 48 48 48 48
33 33 31 28 25 22 20 19 21 23 25 27 28 29 29 30 30 30 31 32 34 35 36 38 40 41 42 43 44 45 46 47 48 47 47 46 46 46 47 47 47 47
31 31 32 31 29 25 21 19 20 21 23 24 25 27 28 29 30 31 32 33 33 34 36 37 38 39 41 42 42 43 44 46 47 47 48 48 46 46 48 48 47 47
29 30 31 31 30 27 23 20 19 19 20 21 22 24 26 28 29 30 32 33 33 35 35 36 37 38 40 41 43 44 45 45 46 46 48 48 48 48 48 48 48 48
30 31 31 30 29 27 26 24 23 20 19 19 20 21 22 25 27 29 30 32 33 35 35 36 38 38 40 42 44 46 46 47 48 48 49 49 50 51 50 49 49 49
28 29 30 31 29 28 28 28 27 25 22 19 18 19 20 22 25 27 28 30 32 34 36 37 39 40 41 43 45 47 47 48 48 49 50 51 52 52 51 50 51 51
26 25 27 30 31 30 29 29 28 27 27 24 20 18 19 20 22 25 27 28 30 33 35 37 40 41 42 44 46 47 48 49 49 49 50 51 52 53 52 52 53 54
26 26 27 29 30 29 29 30 30 29 29 27 23 20 19 19 20 22 25 27 29 32 34 37 39 41 43 45 46 47 48 49 49 48 49 50 52 53 53 53 54 56
21 25 28 29 28 28 29 29 30 30 30 30 28 26 24 21 20 20 23 26 28 31 34 36 38 40 42 44 45 45 47 48 49 48 47 47 50 52 53 53 54 56
15 18 24 27 28 29 29 30 30 30 30 30 30 29 27 25 23 21 22 23 25 29 32 35 38 40 41 41 42 43 44 47 48 47 46 47 48 50 51 52 54 56
13 13 17 22 26 27 29 31 32 33 32 32 30 29 28 27 26 25 23 22 23 25 28 31 35 38 39 39 39 41 42 43 43 43 46 47 46 47 49 51 52 55
14 13 13 16 19 23 26 29 31 33 34 34 34 32 31 30 30 29 27 24 23 23 25 28 31 34 35 36 37 38 38 38 38 40 43 42 39 40 44 47 49 52
16 16 16 16 15 17 21 26 28 30 31 33 34 35 35 34 34 32 30 27 25 23 23 25 28 31 32 34 37 38 38 37 37 38 40 40 37 38 41 43 43 45
19 20 22 22 19 18 20 23 26 28 30 31 34 36 36 36 35 34 32 30 28 26 25 25 27 29 30 32 35 37 38 39 38 37 38 40 41 42 43 44 44 43
20 22 26 27 24 21 22 23 24 26 27 28 32 35 36 37 37 35 34 33 30 29 29 29 30 29 28 30 33 35 37 38 38 38 37 39 42 43 44 45 46 46
19 22 26 29 26 22 22 24 24 23 24 26 28 30 32 34 36 36 36 35 32 31 31 32 33 30 28 29 31 33 35 37 38 39 39 40 42 44 44 45 46 47
18 21 25 29 27 22 23 26 26 25 26 27 25 25 26 27 30 34 37 37 35 33 33 34 35 34 30 30 30 31 33 34 36 38 40 41 42 44 45 46 46 46
19 22 26 29 27 22 24 29 30 30 32 30 25 25 24 23 26 31 34 37 37 35 34 35 38 37 33 30 30 29 30 31 33 35 37 39 40 42 44 45 46 46
22 25 29 31 26 21 25 31 33 35 38 33 26 26 25 24 27 31 34 37 38 36 34 36 39 39 35 32 31 29 28 29 32 33 34 37 40 42 42 43 45 46
27 29 31 30 25 23 27 33 36 39 40 34 25 24 26 26 26 29 35 39 38 35 35 36 39 40 37 34 33 30 28 29 31 30 31 34 38 41 42 42 43 43
28 31 32 29 26 28 32 36 37 38 38 32 25 24 26 27 25 26 31 36 38 37 36 36 39 42 39 35 34 31 28 29 29 28 30 31 32 35 38 40 41 40
30 32 31 29 29 33 35 35 34 32 31 29 28 27 27 27 27 28 31 36 40 40 39 37 39 42 42 38 36 33 29 28 29 28 30 30 29 30 33 35 37 37
Wind_Direction
298 287 281 279 278 273 270 264 257 252 249 246 244 244 246 245 242 238 235 232 229 228 228 227 228 227 227 226 225 224 223 224 225 225 225 225 225 224 224 223 223 224
327 309 299 291 284 279 276 272 268 264 259 255 253 252 252 250 248 244 240 236 232 231 230 228 228 228 228 227 226 224 224 224 225 226 226 226 225 225 225 225 225 225
357 345 331 316 301 291 285 281 276 272 268 265 261 259 257 255 252 249 245 241 237 234 232 231 229 229 229 228 227 226 225 225 227 227 227 227 226 226 226 226 226 226
14 7 357 342 326 312 301 292 285 280 275 272 269 266 263 260 256 252 249 245 240 237 236 233 232 231 230 229 228 227 227 227 228 228 228 228 228 228 227 226 226 226
22 19 13 2 348 334 318 305 296 291 285 280 277 273 268 264 260 254 250 247 243 240 239 236 234 233 231 229 228 227 227 228 229 229 228 229 229 228 228 227 226 226
23 22 20 15 7 355 337 321 310 302 296 291 285 280 274 268 263 257 252 250 247 243 241 239 236 234 232 230 229 228 227 228 229 229 228 229 229 229 228 227 226 226
20 19 19 18 16 9 354 338 326 315 308 302 292 285 279 273 266 261 257 253 250 247 244 241 238 235 233 231 230 229 229 229 229 228 228 228 228 229 229 227 226 225
15 16 17 16 15 12 4 352 341 327 318 310 300 291 285 278 271 265 261 258 253 250 247 243 241 238 235 233 231 231 230 230 230 229 228 227 226 227 228 227 225 225
10 11 13 13 12 10 7 3 357 346 333 318 305 298 290 283 277 270 265 261 257 253 250 247 244 241 238 236 235 233 232 232 231 230 229 228 227 227 227 225 224 224
3 5 6 7 7 6 5 5 3 360 352 338 318 304 295 288 284 279 270 264 260 256 252 249 247 244 242 241 239 237 235 234 234 233 231 230 229 229 227 225 224 223
359 359 359 0 1 0 1 1 0 0 359 354 339 318 304 294 287 284 277 269 263 259 255 252 250 248 246 244 243 241 239 237 237 235 234 233 231 231 230 227 225 224
360 359 356 356 356 355 355 356 356 356 355 355 350 339 326 309 293 286 282 276 269 265 261 257 255 252 250 247 245 244 242 240 238 238 237 235 234 233 232 230 228 228
356 358 357 356 353 351 351 352 352 352 350 350 350 348 343 332 314 298 288 283 276 270 266 263 260 257 253 250 246 244 243 241 240 239 239 238 237 236 235 234 232 231
341 348 354 354 352 350 350 350 349 349 348 347 346 346 345 341 333 320 303 291 282 274 269 266 263 260 255 251 247 244 243 242 241 240 240 240 239 238 237 236 234 233
328 332 342 348 348 348 347 347 347 347 346 345 344 342 341 339 337 332 321 305 291 280 273 267 262 259 255 252 248 246 245 244 243 241 241 241 241 239 238 237 236 234
325 324 327 333 339 341 342 343 344 344 344 343 342 340 338 337 335 333 329 318 304 289 278 271 266 261 257 254 251 247 246 245 244 242 241 240 239 238 237 237 236 234
325 325 325 324 325 329 334 337 339 339 339 339 338 337 335 334 333 332 329 324 314 299 283 275 272 269 265 259 253 249 247 245 244 244 243 240 238 237 237 236 235 235
325 327 328 328 325 322 326 330 332 334 335 335 334 334 332 330 329 328 326 323 317 308 297 286 279 278 275 267 258 253 250 246 244 244 243 240 239 239 238 238 236 235
321 324 326 328 326 321 322 326 328 330 331 330 329 329 328 325 324 323 323 321 316 309 303 297 291 287 282 274 266 258 254 249 246 245 242 240 240 239 239 238 237 236
315 318 321 325 324 318 318 323 324 324 324 324 324 323 321 319 319 318 318 317 314 308 304 300 296 292 286 279 272 265 259 253 248 245 243 242 241 240 239 238 237 236
309 312 316 321 320 315 314 318 319 318 318 319 318 314 311 309 310 312 313 313 311 307 303 299 297 295 290 284 277 269 263 255 249 246 244 244 244 242 240 239 238 237
304 307 311 315 315 310 310 313 315 315 315 316 314 309 304 300 300 304 306 307 306 304 300 296 296 297 293 286 279 270 261 254 249 247 246 245 245 243 242 241 240 238
299 303 307 310 310 305 304 308 310 310 311 312 311 306 300 296 296 299 302 302 302 300 296 292 294 295 293 288 283 272 260 254 250 248 247 246 245 244 242 241 241 238
294 298 302 304 302 297 299 303 304 305 307 307 303 298 295 292 292 294 298 299 298 295 293 290 291 293 291 286 283 276 264 256 252 249 248 247 245 245 243 241 241 240
291 295 297 297 293 292 296 299 300 301 302 301 297 293 292 291 289 288 291 294 294 293 292 289 288 291 290 285 281 276 265 257 253 250 249 247 242 242 242 239 239 239
290 293 293 291 288 291 295 295 295 295 295 295 294 292 290 288 287 286 286 288 290 290 290 287 284 287 288 284 279 275 265 255 251 249 248 247 244 240 238 237 236 234